Sierra Vista, AZ

11:18 PM MST on November 21, 2017 (GMT -0700)
Sierra Vista Municipal-Libby Army Air Field

Weather History for KFHU - July, 2013

Change the Weather History Date:

Tuesday, July 16, 2013

  Actual Average Record
Temperature  
Mean Temperature 71 °F -  
Max Temperature 78 °F 88 °F 99 °F (1988)
Min Temperature 64 °F 69 °F 62 °F (1984)
Cooling Degree Days 6    
Growing Degree Days 21 (Base 50)    
Moisture  
Dew Point 63 °F    
Average Humidity 84    
Maximum Humidity 100    
Minimum Humidity 54    
Precipitation  
Precipitation 0.63 in - - ()
Sea Level Pressure  
Sea Level Pressure 30.09 in    
Wind  
Wind Speed 7 mph (SE)    
Max Wind Speed 13 mph    
Max Gust Speed 18 mph    
Visibility 7 miles    
Events Rain , Thunderstorm    
Averages and records for this station are not official NWS values.
T = Trace of Precipitation, MM = Missing Value Source: NWS Daily Summary

Daily Weather History Graph

Daily Weather History Graph

Search for Another Location

Airport or City:

Trip Planner

Search our weather history database for the weather conditions in past years. The results will help you decide how hot, cold, wet, or windy it might be!

Date:

Astronomy

Jul. 16, 2013 Rise Set
Actual Time 5:27 AM MST 7:26 PM MST
Civil Twilight 5:00 AM MST 7:54 PM MST
Nautical Twilight 4:27 AM MST 8:27 PM MST
Astronomical Twilight 3:51 AM MST 9:02 PM MST
Moon 1:20 PM MST (7/16) No Moon Set
Length of Visible Light 14h 54m
Length of Day
13h 59m
First Quarter, 57% of the Moon is Illuminated
Jul 16
First Quarter
Jul 22
Full
Jul 29
Last Quarter
Aug 6
New
Aug 14
First Quarter

Hourly Weather History & Observations

Time (MST) Temp. Dew Point Humidity Pressure Visibility Wind Dir Wind Speed Gust Speed Precip Events Conditions
12:55 AM 69.8 °F 60.8 °F 73% 29.94 in 10.0 mi ESE 11.5 mph - N/A   Overcast
1:55 AM 69.8 °F 60.8 °F 73% 29.93 in 10.0 mi SE 9.2 mph - N/A   Overcast
2:55 AM 69.8 °F 60.8 °F 73% 29.93 in 10.0 mi SE 12.7 mph - N/A   Overcast
3:55 AM 68.0 °F 60.8 °F 78% 29.94 in 10.0 mi SE 6.9 mph - N/A   Overcast
4:55 AM 68.0 °F 60.8 °F 78% 29.94 in 10.0 mi SE 6.9 mph - N/A   Overcast
5:28 AM 68.0 °F 60.8 °F 78% 30.14 in 10.0 mi SE 6.9 mph - N/A   Overcast
5:55 AM 68.0 °F 60.8 °F 78% 29.95 in 10.0 mi SSE 8.1 mph - N/A   Overcast
6:55 AM 69.8 °F 60.8 °F 73% 29.97 in 10.0 mi ESE 6.9 mph - N/A   Overcast
7:55 AM 71.6 °F 60.8 °F 69% 29.98 in 10.0 mi ESE 8.1 mph - N/A   Mostly Cloudy
8:55 AM 73.4 °F 60.8 °F 65% 29.97 in 10.0 mi SE 12.7 mph - N/A   Mostly Cloudy
9:55 AM 73.4 °F 60.8 °F 65% 29.99 in 10.0 mi ESE 11.5 mph - N/A   Overcast
10:48 AM 71.6 °F 62.6 °F 73% 30.19 in 10.0 mi East 8.1 mph - N/A Rain Light Rain Showers
10:55 AM 71.6 °F 62.6 °F 73% 30.03 in 10.0 mi East 5.8 mph - N/A Rain Light Rain Showers
11:05 AM 73.4 °F 62.6 °F 69% 30.18 in 10.0 mi East 5.8 mph - N/A   Overcast
11:55 AM 77.0 °F 59.0 °F 54% 30.00 in 10.0 mi Variable 6.9 mph - N/A   Overcast
12:38 PM 78.8 °F 60.8 °F 54% 30.16 in 10.0 mi SE 8.1 mph - N/A Thunderstorm Thunderstorm
12:55 PM 77.0 °F 60.8 °F 57% 29.98 in 10.0 mi Variable 4.6 mph - N/A Thunderstorm Thunderstorm
1:55 PM 77.0 °F 60.8 °F 57% 29.98 in 5.0 mi Variable 4.6 mph - N/A Rain , Thunderstorm Light Thunderstorms and Rain
2:02 PM 75.2 °F 64.4 °F 69% 30.16 in 1.5 mi WSW 11.5 mph 18.4 mph N/A Rain , Thunderstorm Thunderstorms and Rain
2:11 PM 71.6 °F 64.4 °F 78% 30.15 in 7.0 mi West 12.7 mph - N/A Rain , Thunderstorm Light Thunderstorms and Rain
2:55 PM 69.8 °F 66.2 °F 88% 30.00 in 7.0 mi North 10.4 mph - N/A Rain , Thunderstorm Light Thunderstorms and Rain
3:40 PM 66.2 °F 64.4 °F 94% 30.18 in 2.0 mi East 8.1 mph - N/A Rain , Thunderstorm Light Thunderstorms and Rain
3:55 PM 66.2 °F 64.4 °F 94% 30.04 in 1.5 mi NE 4.6 mph - N/A Rain , Thunderstorm Thunderstorms and Rain
4:04 PM 66.2 °F 64.4 °F 94% - 1.5 mi ENE 4.6 mph - N/A Rain Heavy Rain
4:12 PM 66.2 °F 64.4 °F 94% 30.18 in 2.0 mi Calm Calm - 0.07 in Rain Rain
4:14 PM 66.2 °F 64.4 °F 94% 30.18 in 2.5 mi Calm Calm - 0.08 in Rain , Thunderstorm Thunderstorms and Rain
4:25 PM 66.2 °F 64.4 °F 94% 30.18 in 2.0 mi Calm Calm - 0.11 in Rain , Thunderstorm Thunderstorms and Rain
4:27 PM 66.2 °F 64.4 °F 94% 30.18 in 1.5 mi Calm Calm - 0.12 in Rain , Thunderstorm Thunderstorms and Rain
4:37 PM 66.2 °F 64.4 °F 94% 30.18 in 2.0 mi West 3.5 mph - 0.15 in Rain , Thunderstorm Light Thunderstorms and Rain
4:39 PM 66.2 °F 64.4 °F 94% 30.18 in 3.0 mi West 4.6 mph - 0.15 in Rain Light Rain
4:56 PM 66.0 °F 64.0 °F 93% 30.03 in 6.0 mi NW 3.5 mph - 0.16 in Rain Light Rain
5:11 PM 66.2 °F 64.4 °F 94% 30.16 in 7.0 mi Calm Calm - 0.00 in Rain Light Rain
5:39 PM 66.2 °F 64.4 °F 94% 30.17 in 1.8 mi Calm Calm - 0.06 in Rain Heavy Rain
5:41 PM - - N/A% - - North - - N/A   Unknown
5:46 PM 66.2 °F 64.4 °F 94% 30.18 in 0.8 mi Calm Calm - 0.13 in Rain Heavy Rain
5:50 PM 64.4 °F 64.4 °F 100% 30.17 in 1.0 mi SSE 3.5 mph - 0.17 in Rain Heavy Rain
5:54 PM 64.4 °F 64.4 °F 100% 30.17 in 1.0 mi Calm Calm - 0.20 in Rain Heavy Rain
5:56 PM 64.9 °F 64.0 °F 97% 30.03 in 0.8 mi Calm Calm - 0.24 in Rain Heavy Rain
6:15 PM 64.4 °F 64.4 °F 100% 30.17 in 1.8 mi SE 6.9 mph - 0.18 in Rain Heavy Rain
6:23 PM 66.2 °F 64.4 °F 94% 30.17 in 2.5 mi SSE 8.1 mph - 0.19 in Rain Rain
6:31 PM 66.2 °F 64.4 °F 94% 30.16 in 4.0 mi SE 8.1 mph - 0.21 in Rain Light Rain
6:56 PM 66.0 °F 64.0 °F 93% 30.01 in 7.0 mi SSE 10.4 mph - 0.23 in Rain Light Rain
7:56 PM 66.0 °F 64.9 °F 96% 30.01 in 10.0 mi ESE 5.8 mph - 0.00 in   Overcast
8:56 PM 66.2 °F 64.4 °F 94% 30.18 in 10.0 mi Calm Calm - N/A   Mostly Cloudy
9:05 PM 66.2 °F 64.4 °F 94% 30.18 in 10.0 mi NNW 4.6 mph - N/A   Mostly Cloudy
9:13 PM 66.2 °F 64.4 °F 94% 30.19 in 10.0 mi NNW 3.5 mph - N/A   Overcast
9:27 PM 66.2 °F 64.4 °F 94% 30.19 in 10.0 mi NNW 3.5 mph - N/A   Mostly Cloudy
9:56 PM 66.0 °F 64.9 °F 96% 30.05 in 10.0 mi Calm Calm - N/A   Overcast
10:27 PM 66.2 °F 64.4 °F 94% 30.21 in 10.0 mi Calm Calm - N/A   Mostly Cloudy
10:55 PM 68.0 °F 64.4 °F 88% 30.05 in 10.0 mi South 3.5 mph - N/A   Mostly Cloudy
11:55 PM 66.2 °F 64.4 °F 94% 30.04 in 10.0 mi Calm Calm - N/A   Mostly Cloudy